Starlink 32413

operational
NORAD ID: 61590 Int'l Des: 2024-187 Owner: SPXS Country: US Constellation: starlink
LEOCIRCULAR

Über Starlink 32413

Beschreibung wird geladen...

Live-Position

3D-Globus wird geladen...

Nächste Überflüge

Höhenverlauf

Altitude vs Time

uPlot chart will show altitude changes over time

Zweizeiliger Elementsatz

1 61590U 24187S 25259.98190938 -.00001306 00000-0 -31987-4 0 9997
2 61590 53.1606 152.2023 0001291 80.8194 279.2953 15.30175598 52482
Epoch: 16. Sept. 2025 • Age: 28 hours

Aktueller Status

Höhe 475.9 km
Geschwindigkeit 7.63 km/s
Subsatellitenpunkt 1.22°N, 93.49°E
Startdatum 18. Okt. 2024
Alter 0.9 years
Typ internet

Technische Details

Klassifizierung Payload
Masse 730.00 kg
Trockenmasse 700.00 kg
Gesamtmasse 730.00 kg
Länge 0.30 m
Durchmesser 4.10 m
Spannweite 29.00 m
Form Box + pan
Hersteller SPXS
Bus-Typ Starlink V2M
Phasenstatus In Orbit
Besitzer/Staat SPXS/US

Große Konstellationen

Loading constellations...